TimeEST,TemperatureF,Dew PointF,Humidity,Sea Level PressureIn,VisibilityMPH,Wind Direction,Wind SpeedMPH,Gust SpeedMPH,PrecipitationIn,Events,Conditions,WindDirDegrees,DateUTC
12:15 AM,6.8,-5.8,56,30.32,10.0,WNW,4.6,-,N/A,,Clear,290,2013-02-11 05:15:00
12:35 AM,8.6,8.6,100,30.32,10.0,Calm,Calm,-,N/A,,Clear,0,2013-02-11 05:35:00
12:55 AM,8.6,3.2,79,30.33,10.0,Calm,Calm,-,N/A,,Clear,0,2013-02-11 05:55:00
1:15 AM,10.4,6.8,85,30.33,10.0,West,3.5,-,N/A,,Clear,260,2013-02-11 06:15:00
1:35 AM,8.6,1.4,73,30.32,10.0,West,4.6,-,N/A,,Clear,280,2013-02-11 06:35:00
1:55 AM,8.6,1.4,73,30.31,10.0,Calm,Calm,-,N/A,,Clear,0,2013-02-11 06:55:00
2:15 AM,5.0,1.4,85,30.30,10.0,Calm,Calm,-,N/A,,Clear,0,2013-02-11 07:15:00
2:35 AM,8.6,8.6,100,30.29,10.0,Calm,Calm,-,N/A,,Clear,0,2013-02-11 07:35:00
2:55 AM,6.8,-5.8,56,30.28,10.0,Calm,Calm,-,N/A,,Clear,0,2013-02-11 07:55:00
3:15 AM,6.8,3.2,85,30.28,10.0,Calm,Calm,-,N/A,,Clear,0,2013-02-11 08:15:00
3:35 AM,5.0,3.2,92,30.27,10.0,Calm,Calm,-,N/A,,Clear,0,2013-02-11 08:35:00
3:55 AM,5.0,1.4,85,30.27,10.0,Calm,Calm,-,N/A,,Clear,0,2013-02-11 08:55:00
4:15 AM,5.0,1.4,85,30.27,10.0,Calm,Calm,-,N/A,,Clear,0,2013-02-11 09:15:00
4:35 AM,5.0,1.4,85,30.26,10.0,Calm,Calm,-,N/A,,Clear,0,2013-02-11 09:35:00
4:55 AM,5.0,3.2,92,30.26,10.0,Calm,Calm,-,N/A,,Clear,0,2013-02-11 09:55:00
5:15 AM,3.2,-0.4,85,30.24,10.0,Calm,Calm,-,N/A,,Clear,0,2013-02-11 10:15:00
5:35 AM,6.8,3.2,85,30.24,9.0,Calm,Calm,-,N/A,,Clear,0,2013-02-11 10:35:00
6:15 AM,8.6,8.6,100,30.23,10.0,Calm,Calm,-,N/A,,Clear,0,2013-02-11 11:15:00
6:55 AM,12.2,12.2,100,30.22,10.0,NNE,3.5,-,N/A,,Clear,20,2013-02-11 11:55:00
7:15 AM,14.0,14.0,100,30.22,10.0,NE,4.6,-,N/A,,Clear,40,2013-02-11 12:15:00
7:35 AM,17.6,17.6,100,30.22,10.0,Calm,Calm,-,N/A,,Clear,0,2013-02-11 12:35:00
7:55 AM,17.6,17.6,100,30.21,10.0,Calm,Calm,-,N/A,,Clear,0,2013-02-11 12:55:00
8:15 AM,21.2,17.6,86,30.20,10.0,Calm,Calm,-,N/A,,Clear,0,2013-02-11 13:15:00
8:35 AM,21.2,17.6,86,30.19,10.0,NNE,3.5,-,N/A,,Clear,30,2013-02-11 13:35:00
8:55 AM,23.0,19.4,86,30.18,10.0,Calm,Calm,-,N/A,,Clear,0,2013-02-11 13:55:00
9:15 AM,24.8,19.4,80,30.18,10.0,Calm,Calm,-,N/A,,Clear,0,2013-02-11 14:15:00
9:35 AM,28.4,23.0,80,30.16,10.0,Calm,Calm,-,N/A,,Partly Cloudy,0,2013-02-11 14:35:00
9:55 AM,30.2,26.6,86,30.15,10.0,Calm,Calm,-,N/A,,Partly Cloudy,0,2013-02-11 14:55:00
10:15 AM,33.8,26.6,75,30.13,10.0,South,4.6,-,N/A,,Partly Cloudy,190,2013-02-11 15:15:00
10:35 AM,37.4,26.6,65,30.13,10.0,SSW,8.1,-,N/A,,Mostly Cloudy,210,2013-02-11 15:35:00
10:55 AM,37.4,26.6,65,30.12,10.0,SW,8.1,-,0.01,,Mostly Cloudy,220,2013-02-11 15:55:00
11:15 AM,37.4,26.6,65,30.10,10.0,SSW,5.8,-,N/A,,Scattered Clouds,200,2013-02-11 16:15:00
11:35 AM,37.4,28.4,70,30.07,10.0,South,8.1,-,N/A,,Scattered Clouds,190,2013-02-11 16:35:00
11:55 AM,37.4,28.4,70,30.05,10.0,South,8.1,-,N/A,,Mostly Cloudy,180,2013-02-11 16:55:00
12:15 PM,37.4,28.4,70,30.03,10.0,SSW,6.9,19.6,N/A,,Overcast,200,2013-02-11 17:15:00
12:35 PM,37.4,30.2,75,30.02,10.0,South,6.9,-,N/A,,Mostly Cloudy,180,2013-02-11 17:35:00
12:55 PM,37.4,32.0,81,30.00,8.0,South,6.9,-,N/A,,Overcast,180,2013-02-11 17:55:00
1:15 PM,37.4,33.8,87,29.98,7.0,South,9.2,16.1,0.02,,Overcast,180,2013-02-11 18:15:00
1:35 PM,35.6,35.6,100,29.97,6.0,South,12.7,17.3,0.05,,Overcast,170,2013-02-11 18:35:00
1:55 PM,37.4,35.6,93,29.95,9.0,South,12.7,23.0,0.07,,Overcast,170,2013-02-11 18:55:00
2:15 PM,37.4,35.6,93,29.93,8.0,South,12.7,18.4,0.01,,Overcast,170,2013-02-11 19:15:00
2:35 PM,37.4,35.6,93,29.91,6.0,South,13.8,-,0.02,,Overcast,170,2013-02-11 19:35:00
2:55 PM,37.4,37.4,100,29.88,7.0,SSE,10.4,17.3,0.04,,Overcast,160,2013-02-11 19:55:00
3:15 PM,37.4,37.4,100,29.86,6.0,SSE,10.4,18.4,0.04,,Overcast,150,2013-02-11 20:15:00
3:35 PM,37.4,37.4,100,29.83,9.0,SE,11.5,17.3,0.07,,Overcast,140,2013-02-11 20:35:00
3:55 PM,37.4,37.4,100,29.83,5.0,SE,9.2,-,0.10,,Overcast,140,2013-02-11 20:55:00
4:15 PM,37.4,35.6,93,29.82,5.0,SE,9.2,16.1,0.03,,Overcast,130,2013-02-11 21:15:00
4:35 PM,39.2,37.4,93,29.80,4.0,SE,5.8,-,0.08,,Overcast,130,2013-02-11 21:35:00
4:55 PM,39.2,39.2,100,29.78,3.0,SE,5.8,-,0.12,,Overcast,130,2013-02-11 21:55:00
5:55 PM,39.2,37.4,93,29.71,4.0,South,5.8,-,0.06,,Overcast,170,2013-02-11 22:55:00
6:15 PM,41.0,41.0,100,29.70,2.5,South,3.5,-,0.01,,Overcast,180,2013-02-11 23:15:00
6:35 PM,41.0,41.0,100,29.69,2.5,SW,4.6,-,0.03,,Overcast,220,2013-02-11 23:35:00
6:55 PM,42.8,41.0,93,29.68,2.5,SW,9.2,-,0.04,,Overcast,220,2013-02-11 23:55:00
7:15 PM,42.8,41.0,93,29.66,2.5,WSW,5.8,-,N/A,,Overcast,240,2013-02-12 00:15:00
7:35 PM,42.8,41.0,93,29.65,3.0,WSW,5.8,-,0.01,,Overcast,240,2013-02-12 00:35:00
7:55 PM,42.8,42.8,100,29.63,2.0,WSW,5.8,-,0.01,,Overcast,250,2013-02-12 00:55:00
8:15 PM,42.8,42.8,100,29.63,2.0,WSW,5.8,-,N/A,,Overcast,250,2013-02-12 01:15:00
8:35 PM,41.0,41.0,100,29.62,1.0,WSW,6.9,-,N/A,,Overcast,250,2013-02-12 01:35:00
8:55 PM,39.2,39.2,100,29.61,0.5,West,5.8,-,N/A,,Overcast,270,2013-02-12 01:55:00
9:15 PM,39.2,37.4,93,29.60,0.8,West,8.1,-,N/A,,Overcast,260,2013-02-12 02:15:00
9:35 PM,39.2,37.4,93,29.59,2.0,West,4.6,-,N/A,,Overcast,260,2013-02-12 02:35:00
9:55 PM,39.2,39.2,100,29.59,1.0,WSW,4.6,-,N/A,,Overcast,250,2013-02-12 02:55:00
10:15 PM,37.4,37.4,100,29.58,2.0,West,5.8,-,N/A,,Overcast,280,2013-02-12 03:15:00
10:35 PM,39.2,37.4,93,29.58,10.0,West,11.5,-,N/A,,Overcast,270,2013-02-12 03:35:00
10:55 PM,37.4,35.6,93,29.58,10.0,West,12.7,-,N/A,,Overcast,260,2013-02-12 03:55:00
11:15 PM,37.4,37.4,100,29.58,10.0,West,13.8,17.3,N/A,,Overcast,280,2013-02-12 04:15:00
11:35 PM,37.4,35.6,93,29.57,10.0,WNW,11.5,-,N/A,,Overcast,290,2013-02-12 04:35:00
11:55 PM,35.6,35.6,100,29.56,10.0,West,5.8,-,N/A,,Overcast,280,2013-02-12 04:55:00